Le nostre stazioni meteo in Italia

Pubblicità
Il mio iltempo24.it
Bousson, Italia (16058): Temperatura & dewpoint: 12.01.2020 10:00:00 - 18.01.2020 10:00:00 (CET)Bousson, Italia (16058): velocità del vento: 12.01.2020 10:00:00 - 18.01.2020 10:00:00 (CET)Bousson, Italia (16058): direzione del vento: 12.01.2020 10:00:00 - 18.01.2020 10:00:00 (CET)
Data & Tempo tt [°C] td [°C] ff [km/h] ff [kn] dd
18.01.2020 10:00:00 - - - - -
18.01.2020 09:00:00 -7,3 -7,7 4 2 E
18.01.2020 08:00:00 -7,4 -8,1 2 1 E
18.01.2020 07:00:00 - - - - -
18.01.2020 06:00:00 -5,5 -5,8 5 3 S
18.01.2020 05:00:00 -6,0 -6,7 2 1 E
18.01.2020 04:00:00 -4,6 -5,1 2 1 ENE
18.01.2020 03:00:00 -3,4 -4,0 2 1 N
18.01.2020 02:00:00 -2,1 -2,7 2 1 ENE
18.01.2020 01:00:00 -1,1 -1,1 2 1 N
18.01.2020 00:00:00 -0,9 -0,9 2 1 OSO
17.01.2020 23:00:00 -0,8 -0,9 0 0 N
17.01.2020 22:00:00 -0,3 -0,4 0 0 N
17.01.2020 21:00:00 -0,3 -0,4 0 0 N
17.01.2020 20:00:00 -0,2 -0,3 2 1 O
17.01.2020 19:00:00 -0,1 -0,4 0 0 N
17.01.2020 18:00:00 0,2 -0,2 2 1 SO
17.01.2020 17:00:00 0,7 -0,6 0 0 N
17.01.2020 16:00:00 2,7 -2,1 8 4 OSO
17.01.2020 15:00:00 3,9 -2,0 8 4 OSO
17.01.2020 14:00:00 4,3 -1,4 5 3 SO
17.01.2020 13:00:00 2,1 0,5 2 1 SSE
17.01.2020 12:00:00 -0,5 -1,1 0 0 N
17.01.2020 11:00:00 -2,8 -2,9 2 1 E
17.01.2020 10:00:00 -5,3 -5,3 2 1 ENE
17.01.2020 09:00:00 -6,8 -6,8 2 1 E
17.01.2020 08:00:00 -8,1 -8,4 2 1 E
17.01.2020 07:00:00 -8,3 -8,6 2 1 E
17.01.2020 06:00:00 -8,4 -8,8 2 1 E
17.01.2020 05:00:00 -8,2 -8,6 4 2 E
17.01.2020 04:00:00 -8,1 -8,6 2 1 ENE
17.01.2020 03:00:00 -7,6 -8,0 4 2 E
17.01.2020 02:00:00 -7,3 -7,8 4 2 E
17.01.2020 01:00:00 -7,2 -7,6 4 2 E
17.01.2020 00:00:00 -7,4 -7,8 4 2 E
16.01.2020 23:00:00 -7,2 -7,7 4 2 E
16.01.2020 22:00:00 -7,0 -7,7 4 2 E
16.01.2020 21:00:00 -6,8 -7,8 2 1 E
16.01.2020 20:00:00 -6,2 -7,6 2 1 E
16.01.2020 19:00:00 -5,3 -7,2 2 1 E
16.01.2020 18:00:00 -4,1 -6,8 0 0 N
16.01.2020 17:00:00 -2,3 -6,2 2 1 E
16.01.2020 16:00:00 1,6 -5,6 4 2 E
16.01.2020 15:00:00 2,7 -4,4 4 2 E
16.01.2020 14:00:00 2,0 -3,4 8 4 E
16.01.2020 13:00:00 0,0 -2,4 5 3 E
16.01.2020 12:00:00 -4,1 -4,4 5 3 E
16.01.2020 11:00:00 -6,8 -7,3 4 2 ENE
16.01.2020 10:00:00 -7,4 -7,8 4 2 E
16.01.2020 09:00:00 -8,0 -8,4 2 1 E
16.01.2020 08:00:00 -8,4 -8,8 2 1 ENE
16.01.2020 07:00:00 -8,5 -9,0 2 1 NNE
16.01.2020 06:00:00 -8,3 -8,7 2 1 NE
16.01.2020 05:00:00 -7,8 -8,2 2 1 E
16.01.2020 04:00:00 -7,6 -8,3 2 1 E
16.01.2020 03:00:00 -7,0 -7,5 4 2 E
16.01.2020 02:00:00 -6,8 -7,6 2 1 ENE
16.01.2020 01:00:00 -6,0 -6,8 4 2 E
16.01.2020 00:00:00 -5,5 -6,5 2 1 E
15.01.2020 23:00:00 -4,7 -5,7 2 1 ESE
15.01.2020 22:00:00 -4,2 -4,8 4 2 E
15.01.2020 21:00:00 -5,6 -6,4 2 1 E
15.01.2020 20:00:00 -5,2 -6,0 4 2 E
15.01.2020 19:00:00 -5,0 -6,4 2 1 E
15.01.2020 18:00:00 -3,6 -5,8 2 1 ENE
15.01.2020 17:00:00 -1,9 -4,9 2 1 E
15.01.2020 16:00:00 0,2 -5,3 0 0 N
15.01.2020 15:00:00 3,4 -3,7 2 1 E
15.01.2020 14:00:00 2,5 -2,1 2 1 E
15.01.2020 13:00:00 -1,3 -2,9 5 3 E
15.01.2020 12:00:00 -5,2 -5,2 4 2 E
15.01.2020 11:00:00 -8,2 -8,6 4 2 E
15.01.2020 10:00:00 -8,8 -9,2 0 0 N
15.01.2020 09:00:00 -8,7 -9,1 2 1 E
15.01.2020 08:00:00 -9,0 -9,5 2 1 E
15.01.2020 07:00:00 -8,7 -9,1 4 2 ENE
15.01.2020 06:00:00 -8,4 -8,8 2 1 ENE
15.01.2020 05:00:00 -8,3 -8,7 2 1 E
15.01.2020 04:00:00 -8,0 -8,4 4 2 E
15.01.2020 03:00:00 -8,1 -8,5 4 2 ENE
15.01.2020 02:00:00 -8,1 -8,6 4 2 E
15.01.2020 01:00:00 -7,7 -8,2 4 2 E
15.01.2020 00:00:00 -7,7 -8,2 4 2 E
14.01.2020 23:00:00 -7,6 -8,3 4 2 E
14.01.2020 22:00:00 -7,4 -8,4 2 1 E
14.01.2020 21:00:00 -6,9 -8,1 2 1 ENE
14.01.2020 20:00:00 -6,2 -7,6 4 2 ENE
14.01.2020 19:00:00 -5,3 -7,2 2 1 E
14.01.2020 18:00:00 -4,1 -7,1 2 1 ENE
14.01.2020 17:00:00 -2,0 -6,8 2 1 SSO
14.01.2020 16:00:00 1,6 -6,1 2 1 S
14.01.2020 15:00:00 2,7 -7,1 4 2 E
14.01.2020 14:00:00 1,7 -5,3 8 4 E
14.01.2020 13:00:00 -1,1 -4,0 5 3 E
14.01.2020 12:00:00 -4,6 -5,1 4 2 E
14.01.2020 11:00:00 -7,6 -8,3 4 2 ENE
14.01.2020 10:00:00 -8,9 -9,6 0 0 N
14.01.2020 09:00:00 -9,3 -10,1 2 1 E
14.01.2020 08:00:00 -9,2 -10,0 2 1 E
14.01.2020 07:00:00 -9,3 -10,1 4 2 ENE
14.01.2020 06:00:00 -8,8 -9,6 2 1 ENE
14.01.2020 05:00:00 -8,7 -9,2 2 1 ENE
14.01.2020 04:00:00 -9,2 -10,0 2 1 ENE
14.01.2020 03:00:00 -9,0 -9,8 0 0 N
14.01.2020 02:00:00 -8,9 -9,7 2 1 E
14.01.2020 01:00:00 -8,7 -9,5 4 2 E
14.01.2020 00:00:00 -8,4 -9,2 4 2 E
13.01.2020 23:00:00 -8,2 -9,1 4 2 ENE
13.01.2020 22:00:00 -7,7 -8,6 4 2 ENE
13.01.2020 21:00:00 -7,2 -8,4 2 1 E
13.01.2020 20:00:00 -6,4 -7,9 2 1 ENE
13.01.2020 19:00:00 -5,2 -7,5 2 1 ENE
13.01.2020 18:00:00 -3,7 -7,0 2 1 E
13.01.2020 17:00:00 -1,3 -6,5 2 1 ENE
13.01.2020 16:00:00 2,0 -6,0 0 0 N
13.01.2020 15:00:00 3,0 -5,8 4 2 E
13.01.2020 14:00:00 2,5 -4,1 4 2 E
13.01.2020 13:00:00 0,2 -3,1 4 2 E
13.01.2020 12:00:00 -3,3 -4,1 4 2 E
13.01.2020 11:00:00 -5,7 -6,4 4 2 E
13.01.2020 10:00:00 -6,8 -7,6 4 2 E
13.01.2020 09:00:00 -7,0 -7,7 4 2 E
13.01.2020 08:00:00 -7,5 -8,3 4 2 E
13.01.2020 07:00:00 -7,1 -7,9 4 2 E
13.01.2020 06:00:00 -7,0 -7,8 4 2 E
13.01.2020 05:00:00 -6,8 -7,6 4 2 E
13.01.2020 04:00:00 -6,7 -7,5 2 1 E
13.01.2020 03:00:00 -6,7 -7,7 4 2 E
13.01.2020 02:00:00 -6,2 -7,2 4 2 E
13.01.2020 01:00:00 -6,0 -7,1 4 2 E
13.01.2020 00:00:00 -5,6 -6,7 2 1 E
12.01.2020 23:00:00 -5,1 -6,4 2 1 E
12.01.2020 22:00:00 -4,7 -6,1 2 1 E
12.01.2020 21:00:00 -3,9 -5,3 2 1 E
12.01.2020 20:00:00 -3,8 -5,5 4 2 E
12.01.2020 19:00:00 -3,8 -5,8 4 2 E
12.01.2020 18:00:00 -3,2 -5,9 4 2 E
12.01.2020 17:00:00 -1,7 -6,1 2 1 E
12.01.2020 16:00:00 1,8 -7,4 2 1 NNO
12.01.2020 15:00:00 3,4 -8,1 4 2 E
12.01.2020 14:00:00 2,6 -5,6 5 3 E
12.01.2020 13:00:00 -0,9 -3,8 4 2 E
12.01.2020 12:00:00 -5,1 -6,1 4 2 E
12.01.2020 11:00:00 -8,0 -8,9 4 2 E
12.01.2020 10:00:00 -9,1 -10,0 4 2 ENE

tt = Temperatura
td = dewpoint
ff = velocità del vento
dd = direzione del vento

Stazioni seguenti

WeatherPro
AMSI
MeteoEarth